User: anonymous   Login
Location: ??????
(38.0677°N, 22.9870°E)
Time: 16:15:30
(UTC+00:00)
Language:

Geosat - Orbit

View from above orbital plane
View from above orbital plane
View from above satellite
View from above satellite

Ground track
Ground track

The orbit data is extracted from the following two-line orbital elements,

1 15595U 85021A   24201.86158770  .00000458  00000-0  19189-3 0  9990
2 15595 108.0589  70.3988 0001900 254.0999 105.9933 14.39062301 62413
Epoch (UTC): 19 July 2024 20:40:41
Eccentricity: 0.0001900
inclination: 108.0589°
perigee height: 760 km
apogee height: 763 km
right ascension of ascending node: 70.3988°
argument of perigee: 254.0999°
revolutions per day: 14.39062301
mean anomaly at epoch: 105.9933°
orbit number at epoch: 6241

The dashed part of the orbit path shows where the satellite is in the earth's shadow,  

DLR